Location: ?????????
(38.4921°N, 22.9787°E)
Time: 02:05:08
(UTC+00:00)

COSMOS 2455 - Pass Details

Date: 08 December 2025
Orbit: 898 x 910 km, 67.1° (Epoch: 15 January)

Event Time Altitude Azimuth Distance (km) Brightness Sun altitude
Exits shadow 03:58:11 19° 327° (NNW) 2,012 4.2 -18.0°
Maximum altitude 04:02:35 75° 245° (WSW) 943 2.8 -17.2°
Drops below altitude 10° 04:08:33 10° 161° (SSE) 2,580 5.7 -16.0°
Sets 04:11:03 0° 160° (SSE) 3,516 6.5 -15.6°
